Voltar ao catálogo

TDRS 6

AtivoComunicaçõesGEO
NORAD 22314·PAYLOAD·🇺🇸 United States

Lançado Jan 13, 1993 de Cape Canaveral Space Force Station

Loading…

TLE

AtualizadoSource: Space-Track

Época: Sep 14, 2026, 16:55 UTC

1 22314U 93003B   26257.70521041 -.00000301  00000-0  00000-0 0  9994
2 22314  14.1859 356.3818 0009643 200.1077   5.2795  1.00275067123300

Acompanhe TDRS 6 em tempo real com AllMySat

Download on the App Store